This is the latest recevied weather packets stored in our database for station/object CE4JVU-10. If no packets are shown the sender has not sent any weather packets the latest 10 day(s).
| Time | Temp. | Humidity | Pressure | Rain* | Wind** | Luminosity | Snow |
|---|---|---|---|---|---|---|---|
| 1778081120 | 18.89° C | 62% | 981.3 hPa | - | - | - | - |
| 1778079320 | 18.89° C | 62% | 980.7 hPa | - | - | - | - |
| 1778077520 | 18.33° C | 61% | 979.6 hPa | - | - | - | - |
| 1778075720 | 18.33° C | 64% | 979.4 hPa | - | - | - | - |
| 1778073920 | 17.78° C | 62% | 980.1 hPa | - | - | - | - |
| 1778072119 | 17.78° C | 64% | 979.8 hPa | - | - | - | - |
| 1778070319 | 17.22° C | 63% | 979.9 hPa | - | - | - | - |
| 1778068519 | 16.67° C | 64% | 979.7 hPa | - | - | - | - |
| 1778066719 | 16.67° C | 65% | 979.4 hPa | - | - | - | - |
| 1778064919 | 16.67° C | 66% | 979.3 hPa | - | - | - | - |
| 1778063120 | 16.67° C | 62% | 979.2 hPa | - | - | - | - |
| 1778061320 | 16.67° C | 61% | 979 hPa | - | - | - | - |
| 1778059520 | 16.67° C | 62% | 979 hPa | - | - | - | - |
| 1778057720 | 17.22° C | 62% | 978.9 hPa | - | - | - | - |
| 1778055920 | 17.22° C | 62% | 978.6 hPa | - | - | - | - |
| 1778054120 | 17.22° C | 62% | 978.8 hPa | - | - | - | - |
| 1778050519 | 17.22° C | 62% | 978.7 hPa | - | - | - | - |
| 1778048719 | 17.78° C | 61% | 978.6 hPa | - | - | - | - |
| 1778046919 | 17.78° C | 61% | 978.9 hPa | - | - | - | - |
| 1778045119 | 17.78° C | 61% | 979.1 hPa | - | - | - | - |
| 1778043319 | 17.78° C | 62% | 979.4 hPa | - | - | - | - |
| 1778041518 | 17.78° C | 61% | 979.5 hPa | - | - | - | - |
| 1778039718 | 18.33° C | 60% | 979.6 hPa | - | - | - | - |
| 1778037918 | 17.78° C | 59% | 979.9 hPa | - | - | - | - |
| 1778036118 | 18.33° C | 59% | 979.9 hPa | - | - | - | - |
* Rain since midnight (hover to see other rain measurements)
** Current wind speed in m/s (hover to see current wind gust speed)